Погода в Юрьевом

Россия / Новгородская область     58°02′34″N   31°35′13″E
темп.,
°C
ветер,
м/с
пор.,
м/с
влажн.,
%
обл.,
%
осадки,
мм/ч
давл.,
гПа
погр.,
м
20 мая, пт
пт2000:00+3св26680 0.0 1020106
03:00+1всв22809 0.0 102044
06:00+3в2681100 0.0 1020166
09:00+8в3452100 0.0 1021716
12:00+11в3340100 0.0 10201329
15:00+13вюв3338100 0.0 10181525
18:00+13в3340100 0.0 10161549
21:00+9в2460100 0.0 101582
21 мая, сб
сб2100:00+7в31059100 0.0 1014269
03:00+5в3106395 0.0 1014266
06:00+5вюв3116522 0.0 1013328
09:00+11вюв464679 0.0 1013917
12:00+14вюв56365 0.0 10111905
15:00+16вюв56328 0.0 10092282
18:00+15в453774 0.0 10082112
21:00+9всв410615 0.0 1008277
22 мая, вс
вс2200:00+6в311645 0.0 1008231
03:00+3всв28800 0.0 1009154
06:00+4всв28695 0.0 1010254
09:00+10св464932 0.0 10111020
12:00+13ссв46325 0.0 10102195
15:00+14ссв56285 0.0 10102408
18:00+14с45295 0.0 10102379
21:00+9с410525 0.0 1011352
23 мая, пн
пн2300:00+4ссв28640 0.0 1012162
03:00+2ссз22724 0.0 101229
06:00+4ссз266761 0.0 1013224
09:00+10сз354485 0.0 1012591
12:00+14с584413 0.0 10121683
15:00+16ссз694178 0.0 10112330
18:00+16с510445 0.0 10112020
21:00+10с23655 0.0 101241
24 мая, вт
вт2400:00+8ссз22745 0.0 101315
03:00+6сз22875 0.0 101536
06:00+7зсз28745 0.0 1015218
09:00+14сз36450 0.0 1015521
12:00+18ссз46360 0.0 10151736
15:00+20ссз353216 0.0 10152632
18:00+20ссз243675 0.0 10152121
21:00+14з226338 0.0 101614